Port Angeles, WA

7:01 PM PST on February 07, 2016 (GMT -0800)
Fairchild International | | Change Station
CLOSE
Current Station
Airport
Location: Port Angeles,
Elevation: 289 ft
Nearby Weather Stations

Elev 289 ft 48.12 °N, 123.50 °W | Updated 8 minutes ago

Clear
Clear
38 °F
Feels Like 34 °F
N
5
Wind Variable Wind from SE

Today
High -- | Low -- °F
--% Chance of Precip.
Yesterday
High -- | Low -- °F
Precip. -- in
Pressure 30.56 in
Visibility 8.0 miles
Clouds Clear
Windchill 34 °F
Dew Point 35 °F
Humidity 89%
Rainfall 0.00 in
Snow Depth Not available.
7:33 AM 5:22 PM
Waning Crescent, 0% visible
METAR KCLM 080253Z AUTO 14004KT 8SM CLR 03/02 A3055 RMK AO2 SLP349 T00330017 58001
Pressure 30.56 in
Visibility 8.0 miles
Clouds Clear
Windchill 34 °F
Dew Point 35 °F
Humidity 89%
Rainfall 0.00 in
Snow Depth Not available.
7:33 AM 5:22 PM
Waning Crescent, 0% visible
METAR KCLM 080253Z AUTO 14004KT 8SM CLR 03/02 A3055 RMK AO2 SLP349 T00330017 58001

10-Day Weather Forecast

Almanac

Astronomy

Feb. 07, 2016 Rise Set
Actual Time
Civil Twilight
Nautical Twilight
Astronomical Twilight
Moon
Length of Visible Light
Length of Day
Tomorrow will be .
, % of the Moon is Illuminated

Today's Extremes

State Highs State Lows

Community

WunderPhotos

Upload Photos

1,891,373 photos uploaded!

WunderBlog® & News

Nearby

Air Quality

  Air Quality AQ Index Pollutant
Not available.

Snow Depth

Station Depth Elevation

Earthquake Activity

City Distance Mag. Time & Date
Minimum magnitude displayed is 2.5.

Coastal Water Temperatures

Place Temperature

Stations

Nearby Weather Stations

Station Location Temp. Windchill Dew Point Humidity Wind Precip. Elev Updated Type
                   

Watches & Warnings

There are currently no watches in effect.